Baraboo, WI

4:08 PM CDT on May 29, 2017 (GMT -0500)
Baraboo Wisconsin Dells

Weather History for KDLL - August, 2014

Change the Weather History Date:

Saturday, August 16, 2014

  Actual Average Record
Temperature  
Mean Temperature 72 °F -  
Max Temperature 84 °F 81 °F 102 °F (1988)
Min Temperature 61 °F 55 °F 6 °F (1999)
Cooling Degree Days 7    
Growing Degree Days 22 (Base 50)    
Moisture  
Dew Point 63 °F    
Average Humidity 75    
Maximum Humidity 95    
Minimum Humidity 47    
Precipitation  
Precipitation 0.00 in - - ()
Sea Level Pressure  
Sea Level Pressure 29.90 in    
Wind  
Wind Speed 5 mph (WSW)    
Max Wind Speed 10 mph    
Max Gust Speed -    
Visibility 8 miles    
Events Fog    
Averages and records for this station are not official NWS values.
T = Trace of Precipitation, MM = Missing Value Source: NWS Daily Summary

Daily Weather History Graph

Daily Weather History Graph

Search for Another Location

Airport or City:

Trip Planner

Search our weather history database for the weather conditions in past years. The results will help you decide how hot, cold, wet, or windy it might be!

Date:

Astronomy

Aug. 16, 2014 Rise Set
Actual Time 6:05 AM CDT 8:00 PM CDT
Civil Twilight 5:34 AM CDT 8:31 PM CDT
Nautical Twilight 4:56 AM CDT 9:09 PM CDT
Astronomical Twilight 4:15 AM CDT 9:50 PM CDT
Moon 11:30 PM CDT (8/16) 1:04 PM CDT (8/16)
Length of Visible Light 14h 57m
Length of Day
13h 55m
Waning Gibbous, 58% of the Moon is Illuminated
Aug 16
Waning Gibbous
Aug 17
Last Quarter
Aug 25
New
Sep 2
First Quarter
Sep 8
Full

Hourly Weather History & Observations

Time (CDT) Temp. Heat Index Dew Point Humidity Pressure Visibility Wind Dir Wind Speed Gust Speed Precip Events Conditions
12:15 AM 64.9 °F - 60.8 °F 86% 29.93 in 10.0 mi SW 5.8 mph - N/A   Clear
12:35 AM 64.0 °F - 60.3 °F 87% 29.92 in 10.0 mi Calm Calm - N/A   Clear
12:55 AM 63.1 °F - 60.1 °F 90% 29.92 in 10.0 mi Calm Calm - N/A   Clear
1:15 AM 63.0 °F - 60.1 °F 90% 29.91 in 10.0 mi Calm Calm - N/A   Clear
1:35 AM 63.1 °F - 60.1 °F 90% 29.91 in 10.0 mi WSW 3.5 mph - N/A   Clear
1:55 AM 62.8 °F - 59.9 °F 90% 29.90 in 10.0 mi SW 4.6 mph - N/A   Clear
2:15 AM 62.6 °F - 59.9 °F 91% 29.90 in 10.0 mi SW 4.6 mph - N/A   Clear
2:35 AM 62.1 °F - 59.4 °F 91% 29.90 in 10.0 mi SW 3.5 mph - N/A   Clear
2:55 AM 62.2 °F - 59.9 °F 92% 29.89 in 10.0 mi SW 4.6 mph - N/A   Clear
3:15 AM 62.1 °F - 59.5 °F 91% 29.89 in 10.0 mi SW 3.5 mph - N/A   Clear
3:35 AM 62.2 °F - 59.9 °F 92% 29.90 in 7.0 mi SW 6.9 mph - N/A   Clear
3:55 AM 62.1 °F - 59.9 °F 93% 29.90 in 7.0 mi SW 5.8 mph - N/A   Clear
4:15 AM 61.9 °F - 59.5 °F 92% 29.91 in 5.0 mi WSW 3.5 mph - N/A   Clear
4:35 AM 61.9 °F - 59.5 °F 92% 29.91 in 5.0 mi WSW 4.6 mph - N/A   Clear
4:55 AM 61.7 °F - 59.4 °F 92% 29.91 in 5.0 mi Calm Calm - N/A   Scattered Clouds
5:15 AM 61.9 °F - 59.9 °F 93% 29.91 in 4.0 mi WSW 4.6 mph - N/A   Mostly Cloudy
5:35 AM 61.9 °F - 59.9 °F 93% 29.91 in 3.0 mi SW 4.6 mph - N/A   Overcast
5:55 AM 62.1 °F - 60.1 °F 93% 29.91 in 2.0 mi WSW 4.6 mph - N/A   Overcast
6:15 AM 62.2 °F - 60.3 °F 93% 29.91 in 0.8 mi WSW 3.5 mph - N/A   Overcast
6:35 AM 62.6 °F - 60.8 °F 94% 29.91 in 0.2 mi SW 3.5 mph - N/A Fog Fog
6:55 AM 62.6 °F - 60.8 °F 94% 29.92 in 0.2 mi SW 5.8 mph - N/A Fog Fog
7:15 AM 62.8 °F - 61.2 °F 94% 29.92 in 0.2 mi WSW 5.8 mph - N/A Fog Fog
7:35 AM 63.5 °F - 61.7 °F 94% 29.92 in 0.2 mi WSW 3.5 mph - N/A Fog Fog
7:55 AM 63.9 °F - 62.4 °F 95% 29.92 in 0.2 mi WSW 4.6 mph - N/A Fog Fog
8:15 AM 64.2 °F - 62.6 °F 94% 29.92 in 3.0 mi WSW 5.8 mph - N/A   Overcast
8:35 AM 64.8 °F - 63.3 °F 95% 29.92 in 4.0 mi West 6.9 mph - N/A   Overcast
8:55 AM 66.2 °F - 63.3 °F 90% 29.91 in 7.0 mi West 5.8 mph - N/A   Mostly Cloudy
9:15 AM 69.6 °F - 62.6 °F 78% 29.91 in 10.0 mi West 6.9 mph - N/A   Scattered Clouds
9:35 AM 71.4 °F - 62.2 °F 73% 29.91 in 10.0 mi West 6.9 mph - N/A   Scattered Clouds
9:55 AM 72.3 °F - 62.2 °F 70% 29.91 in 10.0 mi Calm Calm - N/A   Scattered Clouds
10:15 AM 73.8 °F - 61.9 °F 66% 29.91 in 10.0 mi West 5.8 mph - N/A   Clear
10:35 AM 75.7 °F - 61.9 °F 62% 29.91 in 10.0 mi West 6.9 mph - N/A   Clear
10:55 AM 76.8 °F - 62.4 °F 61% 29.91 in 10.0 mi WNW 5.8 mph - N/A   Clear
11:35 AM 79.3 °F - 63.0 °F 57% 29.91 in 10.0 mi West 3.5 mph - N/A   Scattered Clouds
12:15 PM 79.0 °F - 63.0 °F 58% 29.91 in 10.0 mi WSW 6.9 mph - N/A   Overcast
12:35 PM 78.8 °F - 63.0 °F 58% 29.91 in 10.0 mi SW 6.9 mph - N/A   Mostly Cloudy
12:55 PM 79.5 °F - 63.5 °F 58% 29.90 in 10.0 mi SW 4.6 mph - N/A   Mostly Cloudy
1:15 PM 80.1 °F 81.5 °F 63.3 °F 56% 29.89 in 10.0 mi WSW 8.1 mph - N/A   Mostly Cloudy
1:35 PM 80.6 °F 82.0 °F 63.7 °F 56% 29.89 in 10.0 mi SSW 5.8 mph - N/A   Mostly Cloudy
1:55 PM 81.9 °F 83.2 °F 63.7 °F 54% 29.89 in 10.0 mi WSW 9.2 mph - N/A   Overcast
2:15 PM 83.1 °F 84.4 °F 63.7 °F 52% 29.88 in 10.0 mi SW 10.4 mph - N/A   Mostly Cloudy
2:35 PM 81.7 °F 82.6 °F 61.9 °F 51% 29.88 in 10.0 mi WNW 6.9 mph - N/A   Scattered Clouds
2:55 PM 81.3 °F 82.5 °F 62.8 °F 53% 29.88 in 10.0 mi WNW 3.5 mph - N/A   Mostly Cloudy
3:15 PM 82.0 °F 83.1 °F 62.8 °F 52% 29.88 in 10.0 mi West 6.9 mph - N/A   Mostly Cloudy
3:55 PM 83.8 °F 84.3 °F 61.9 °F 47% 29.87 in 10.0 mi West 4.6 mph - N/A   Scattered Clouds
4:15 PM 83.7 °F 84.7 °F 63.1 °F 50% 29.87 in 10.0 mi West 6.9 mph - N/A   Clear
4:35 PM 83.5 °F 84.7 °F 63.5 °F 51% 29.87 in 10.0 mi WSW 8.1 mph - N/A   Clear
4:55 PM 83.8 °F 85.1 °F 63.9 °F 51% 29.87 in 10.0 mi SW 10.4 mph - N/A   Scattered Clouds
5:15 PM 83.5 °F 84.7 °F 63.5 °F 51% 29.87 in 10.0 mi SW 8.1 mph - N/A   Mostly Cloudy
5:35 PM 82.8 °F 84.0 °F 63.7 °F 52% 29.87 in 10.0 mi WSW 9.2 mph - N/A   Mostly Cloudy
5:55 PM 82.6 °F 83.8 °F 63.5 °F 52% 29.87 in 10.0 mi WSW 6.9 mph - N/A   Mostly Cloudy
6:15 PM 81.9 °F 83.2 °F 63.5 °F 54% 29.88 in 10.0 mi WSW 6.9 mph - N/A   Mostly Cloudy
6:35 PM 81.5 °F 82.8 °F 63.3 °F 54% 29.87 in 10.0 mi West 6.9 mph - N/A   Scattered Clouds
6:55 PM 80.4 °F 82.0 °F 64.0 °F 57% 29.87 in 10.0 mi WSW 5.8 mph - N/A   Scattered Clouds
7:15 PM 79.0 °F - 64.4 °F 61% 29.88 in 10.0 mi SW 4.6 mph - N/A   Clear
7:35 PM 77.9 °F - 64.8 °F 64% 29.88 in 10.0 mi WSW 3.5 mph - N/A   Clear
7:55 PM 76.5 °F - 64.6 °F 67% 29.89 in 10.0 mi West 3.5 mph - N/A   Clear
8:15 PM 75.7 °F - 64.6 °F 68% 29.89 in 10.0 mi West 4.6 mph - N/A   Clear
8:35 PM 74.5 °F - 64.8 °F 72% 29.89 in 10.0 mi Calm Calm - N/A   Clear
8:55 PM 73.9 °F - 64.9 °F 73% 29.89 in 10.0 mi Calm Calm - N/A   Clear
9:15 PM 72.7 °F - 64.9 °F 77% 29.90 in 10.0 mi West 3.5 mph - N/A   Clear
9:35 PM 72.1 °F - 65.3 °F 79% 29.90 in 10.0 mi Calm Calm - N/A   Mostly Cloudy
9:55 PM 74.7 °F - 65.5 °F 73% 29.91 in 10.0 mi NE 6.9 mph - N/A   Overcast
10:15 PM 73.2 °F - 65.7 °F 77% 29.92 in 10.0 mi ENE 8.1 mph - N/A   Light Drizzle
10:35 PM 72.5 °F - 66.2 °F 81% 29.92 in 10.0 mi ENE 9.2 mph - N/A   Overcast
10:55 PM 71.6 °F - 66.9 °F 85% 29.92 in 10.0 mi ENE 9.2 mph - N/A   Overcast
11:15 PM 71.1 °F - 67.5 °F 88% 29.93 in 10.0 mi ENE 9.2 mph - N/A   Overcast
11:35 PM 70.3 °F - 67.1 °F 89% 29.94 in 7.0 mi ENE 9.2 mph - N/A   Overcast
11:55 PM 68.0 °F - 64.8 °F 89% 29.95 in 7.0 mi ENE 10.4 mph - N/A   Light Drizzle